STARLINK-35414, 65798

Orbit data source: Space-Track

STARLINK-35414, 65798 is a payload satellite owned by SpaceX/Seattle (US) in SSO that was launched on Fri, 26 Sep 2025 UTC via an FALCON 9 launch vehicle from the Air Force Western Test Range (AFWTR). Payload-class satellites include a variety of spacecraft equipped with specific instruments for various scientific and technological missions. These include communications satellites like Starlink; space stations such as the ISS; scientific satellites like the Hubble; Earth observation satellites from companies like Planet Labs, Umbra, and HawkEye 360; GPS; miniature CubeSats for education and research; and military/defense satellites.

Loading next visibility...
Identifier
65798, 2025-218H
Orbit
SSO
Country
Flag of USUS
Related business
Manufacturer
SpaceX/Seattle
Mission
Operational Commercial Communications
Bus & Motor
STARLINK V2MO, Unknown motor
Mass
575 kg wet, ~530 kg dry
Launch date (UTC)
2025-09-26 (5 months ago)
Launch vehicle
FALCON 9
Launch site
Air Force Western Test Range (AFWTR)
Object type
Payload
Rocket body
Debris
Shape & HBR
Box + 2 Pan, 17.7 m
Radar Cross Section
36.964 m²

Expand to show TLE details & history
Last TLE update: 16 hours ago

TLE from 16 hours ago
0 STARLINK-35414
1 65798U 25218H   26062.20662918  .00022837  00000-0  15826-2 0  9999
2 65798  97.6028 286.5565 0002151  78.3460 281.8008 15.05630145 23993
Epoch: 2026-03-03T04:57Z
TLE epoch observation values (Epoch: 2026-03-03T04:57:32.761Z)
Latitude
-0.00001°
Longitude
51.18099°
Altitude
552.333 km
Speed
7.586 km/s
True Right ascension
19h 06m 13s
True Declination
0° 00' 00"
Sunlit
Object was in daylight at epoch
Visualization orbit readout
Latitude
Unknown
Longitude
Unknown
Altitude
Unknown
Speed
Unknown
Apparent Right ascension
Unknown
Apparent Declination
Unknown
Sunlit
N/A
Visualization observer readout
Local Sidereal Time
00:43:00
Azimuth
Unknown
Elevation
Unknown
Doppler factor
Unknown
Orbital elements
Apogee altitude
548.055 km
Perigee altitude
545.076 km
Semi-major axis
6,924.703 km
Eccentricity
0.00022
Inclination
97.6028°
RAAN
286.5565°
Arg. of periapsis
78.346°
True anomaly
281.77667°
Mean anomaly
281.8008°
Eccentric anomaly
281.78874°
Mean motion
3.76653 °/min
Orbital period
95.58 mins
BSTAR
0.0015826
Loading maneuver chart data...
Computing Atmospheric mass density...
Loading historical data...
Loading historical data...
Loading historical data...
Loading historical data...
Loading historical data...
Loading historical data...
Loading historical data...

Documentation

Showing up to 5 results
|